Terminal Aerodrome Forecast
Issued by NWS

Home | Current Version | Previous Version | Graphics & Text | Print | Product List | Glossary On
Versions: 1 2 3 4 5 6 7 8 9 10 11 12 13 14 15 16 17 18 19 20 21 22 23 24 25 26
000
FTUS43 KGRB 250500 AAA
TAFATW
TAF AMD
KATW 250513Z 2505/2524 09007KT P6SM SCT150 BKN250
     FM250600 09009KT 4SM -SNPL SCT012 OVC025
     FM250700 07007KT 1 1/2SM -SNPL OVC005
      TEMPO 2507/2511 1/2SM SN OVC003
     FM251300 26009KT P6SM OVC008
     FM251600 26012KT P6SM BKN012
     FM252000 24012G18KT P6SM SCT015 BKN070=

USA.gov is the U.S. government's official web portal to all federal, state and local government web resources and services.